BAW76N EGLL-HECA

Flight info

Callsign BAW76N
Flight time 4h 34m
Altitude 37000
Route DET L6 DVR UL9 KONAN UL607 MATUG DCT GUBAX DCT BOREP DCT ENITA DCT PEPIK DCT BERVA DCT ERGOM DCT TIMUR DCT ADORU UL606 EKI UL854 MARMA UT44 MINSU/N0453F390 UT44 KULAR UT39 TOMBI M855 RASDA A16 CVO
Aircraft A20N/M-SDE2E3FGHIRWXY/LB1

Departure

Time 2026-05-05 12:43
Airport London Heathrow Airport (EGLL)

Arrival

Time 2026-05-05 17:18
Airport Cairo International Airport (HECA)
Time Latitude Longitude Altitude Speed Heading
2026-05-05 12:10 51.47271 -0.48581 86 ft 0 kts 270°
2026-05-05 12:27 51.47271 -0.48560 90 ft 2 kts 269°
2026-05-05 12:27 51.47271 -0.48536 86 ft 2 kts 269°
2026-05-05 12:27 51.47271 -0.48512 88 ft 2 kts 269°
2026-05-05 12:27 51.47273 -0.48489 88 ft 2 kts 242°
2026-05-05 12:28 51.47282 -0.48470 91 ft 2 kts 207°
2026-05-05 12:28 51.47286 -0.48467 90 ft 0 kts 199°
2026-05-05 12:28 51.47281 -0.48469 91 ft 1 kts 199°
2026-05-05 12:28 51.47275 -0.48472 87 ft 1 kts 192°
2026-05-05 12:29 51.47273 -0.48472 87 ft 0 kts 184°
2026-05-05 12:32 51.47247 -0.48475 88 ft 9 kts 184°
2026-05-05 12:32 51.47174 -0.48477 87 ft 12 kts 180°
2026-05-05 12:32 51.47083 -0.48472 89 ft 14 kts 179°
2026-05-05 12:33 51.46975 -0.48474 87 ft 16 kts 179°
2026-05-05 12:33 51.46882 -0.48469 89 ft 11 kts 181°
2026-05-05 12:33 51.46827 -0.48469 87 ft 0 kts 178°
2026-05-05 12:34 51.46824 -0.48469 87 ft 4 kts 180°
2026-05-05 12:34 51.46741 -0.48470 87 ft 15 kts 179°
2026-05-05 12:34 51.46631 -0.48468 88 ft 14 kts 180°
2026-05-05 12:34 51.46599 -0.48468 89 ft 0 kts 180°
2026-05-05 12:35 51.46585 -0.48468 89 ft 5 kts 180°
2026-05-05 12:35 51.46533 -0.48469 88 ft 10 kts 180°
2026-05-05 12:35 51.46479 -0.48403 87 ft 11 kts 100°
2026-05-05 12:36 51.46478 -0.48328 87 ft 0 kts 89°
2026-05-05 12:36 51.46479 -0.48224 86 ft 39 kts 89°
2026-05-05 12:36 51.46481 -0.47345 82 ft 114 kts 90°
2026-05-05 12:37 51.46485 -0.45811 85 ft 129 kts 90°
2026-05-05 12:37 51.46498 -0.44892 88 ft 34 kts 73°
2026-05-05 12:37 51.46573 -0.44781 92 ft 15 kts 39°
2026-05-05 12:37 51.46590 -0.44756 90 ft 0 kts 43°
2026-05-05 12:38 51.46612 -0.44728 91 ft 8 kts 30°
2026-05-05 12:39 51.46658 -0.44762 91 ft 9 kts 301°
2026-05-05 12:39 51.46666 -0.44885 89 ft 12 kts 269°
2026-05-05 12:39 51.46665 -0.44988 89 ft 10 kts 269°
2026-05-05 12:39 51.46665 -0.45157 87 ft 19 kts 271°
2026-05-05 12:40 51.46664 -0.45419 83 ft 27 kts 269°
2026-05-05 12:40 51.46662 -0.45735 80 ft 29 kts 270°
2026-05-05 12:40 51.46662 -0.46057 82 ft 28 kts 270°
2026-05-05 12:40 51.46660 -0.46363 90 ft 27 kts 269°
2026-05-05 12:41 51.46659 -0.46654 92 ft 26 kts 270°
2026-05-05 12:41 51.46659 -0.46952 90 ft 27 kts 268°
2026-05-05 12:41 51.46656 -0.47269 83 ft 29 kts 271°
2026-05-05 12:41 51.46656 -0.47597 81 ft 27 kts 270°
2026-05-05 12:42 51.46654 -0.47896 82 ft 26 kts 269°
2026-05-05 12:42 51.46650 -0.48148 87 ft 14 kts 257°
2026-05-05 12:42 51.46579 -0.48216 86 ft 15 kts 179°
2026-05-05 12:42 51.46481 -0.48167 86 ft 15 kts 115°
2026-05-05 12:43 51.46481 -0.47907 83 ft 52 kts 89°
2026-05-05 12:43 51.46483 -0.46908 89 ft 122 kts 90°
2026-05-05 12:43 51.46481 -0.45289 340 ft 151 kts 89°
2026-05-05 12:43 51.46471 -0.43571 1047 ft 159 kts 86°
2026-05-05 12:44 51.46479 -0.41776 1939 ft 163 kts 92°
2026-05-05 12:44 51.46120 -0.39957 2578 ft 182 kts 114°
2026-05-05 12:44 51.45433 -0.38137 3169 ft 200 kts 121°
2026-05-05 12:44 51.44704 -0.36207 3761 ft 212 kts 110°
2026-05-05 12:45 51.44137 -0.33846 4352 ft 235 kts 107°
2026-05-05 12:45 51.43577 -0.31278 5031 ft 253 kts 107°
2026-05-05 12:45 51.43022 -0.28563 5824 ft 263 kts 105°
2026-05-05 12:45 51.42604 -0.25663 6687 ft 270 kts 101°
2026-05-05 12:46 51.42207 -0.22698 7553 ft 275 kts 101°
2026-05-05 12:46 51.41798 -0.19673 8452 ft 279 kts 102°
2026-05-05 12:46 51.41379 -0.16611 9333 ft 285 kts 102°
2026-05-05 12:46 51.40946 -0.13474 10183 ft 290 kts 102°
2026-05-05 12:47 51.40488 -0.10210 10648 ft 310 kts 102°
2026-05-05 12:47 51.39995 -0.06716 10970 ft 333 kts 102°
2026-05-05 12:47 51.39480 -0.03083 11631 ft 341 kts 102°
2026-05-05 12:47 51.39011 0.00656 12533 ft 343 kts 98°
2026-05-05 12:48 51.38640 0.04444 13407 ft 347 kts 97°
2026-05-05 12:48 51.38288 0.08294 14233 ft 350 kts 97°
2026-05-05 12:48 51.37928 0.12145 15002 ft 354 kts 98°
2026-05-05 12:48 51.37548 0.16076 15760 ft 359 kts 98°
2026-05-05 12:49 51.37172 0.19848 16492 ft 363 kts 98°
2026-05-05 12:49 51.36765 0.23861 17246 ft 367 kts 99°
2026-05-05 12:49 51.36348 0.27932 18009 ft 372 kts 99°
2026-05-05 12:49 51.35926 0.32034 18683 ft 376 kts 99°
2026-05-05 12:50 51.35497 0.36192 19437 ft 380 kts 99°
2026-05-05 12:50 51.35062 0.40394 20102 ft 384 kts 99°
2026-05-05 12:50 51.34626 0.44587 20733 ft 388 kts 99°
2026-05-05 12:50 51.34180 0.48873 21356 ft 392 kts 100°
2026-05-05 12:51 51.33725 0.53219 21968 ft 396 kts 100°
2026-05-05 12:51 51.33267 0.57581 22559 ft 400 kts 100°
2026-05-05 12:51 51.32808 0.61932 23151 ft 403 kts 100°
2026-05-05 12:51 51.32336 0.66390 23726 ft 406 kts 101°
2026-05-05 12:52 51.31864 0.70843 24226 ft 408 kts 101°
2026-05-05 12:52 51.31385 0.75343 24695 ft 410 kts 101°
2026-05-05 12:52 51.30902 0.79853 25142 ft 413 kts 101°
2026-05-05 12:52 51.30416 0.84383 25530 ft 415 kts 101°
2026-05-05 12:53 51.29924 0.88945 25903 ft 417 kts 101°
2026-05-05 12:53 51.29435 0.93468 26268 ft 420 kts 101°
2026-05-05 12:53 51.28933 0.98085 26642 ft 422 kts 101°
2026-05-05 12:53 51.28427 1.02722 27005 ft 424 kts 101°
2026-05-05 12:54 51.27399 1.12095 27689 ft 429 kts 102°
2026-05-05 12:54 51.26884 1.16766 28014 ft 432 kts 102°
2026-05-05 12:54 51.26359 1.21508 28320 ft 434 kts 102°
2026-05-05 12:55 51.25830 1.26264 28640 ft 436 kts 102°
2026-05-05 12:55 51.25295 1.31054 28931 ft 439 kts 102°
2026-05-05 12:55 51.24755 1.35880 29230 ft 441 kts 102°
2026-05-05 12:55 51.24212 1.40704 29506 ft 443 kts 102°
2026-05-05 12:56 51.23664 1.45559 29788 ft 445 kts 102°
2026-05-05 12:56 51.23111 1.50436 30061 ft 447 kts 102°
2026-05-05 12:56 51.22560 1.55272 30305 ft 449 kts 102°
2026-05-05 12:56 51.22000 1.60178 30560 ft 450 kts 102°
2026-05-05 12:57 51.21433 1.65115 30806 ft 452 kts 102°
2026-05-05 12:57 51.20862 1.70074 31069 ft 453 kts 102°
2026-05-05 12:57 51.20290 1.75028 31385 ft 453 kts 102°
2026-05-05 12:57 51.19716 1.79969 31722 ft 453 kts 103°
2026-05-05 12:58 51.19149 1.84844 32013 ft 453 kts 103°
2026-05-05 12:58 51.18572 1.89773 32309 ft 452 kts 103°
2026-05-05 12:58 51.17991 1.94722 32603 ft 452 kts 103°
2026-05-05 12:58 51.17409 1.99650 32887 ft 452 kts 103°
2026-05-05 12:59 51.16825 2.04587 33154 ft 452 kts 103°
2026-05-05 12:59 51.16239 2.09522 33409 ft 452 kts 103°
2026-05-05 12:59 51.15658 2.14394 33651 ft 453 kts 103°
2026-05-05 13:00 51.14475 2.24260 34129 ft 452 kts 103°
2026-05-05 13:00 51.13880 2.29188 34338 ft 452 kts 103°
2026-05-05 13:01 51.12094 2.43883 34882 ft 453 kts 103°
2026-05-05 13:01 51.11490 2.48814 35055 ft 453 kts 103°
2026-05-05 13:01 51.10886 2.53735 35223 ft 453 kts 103°
2026-05-05 13:01 51.10279 2.58657 35387 ft 453 kts 103°
2026-05-05 13:02 51.09667 2.63582 35551 ft 453 kts 104°
2026-05-05 13:02 51.08880 2.68431 35715 ft 452 kts 109°
2026-05-05 13:02 51.07992 2.73232 35877 ft 452 kts 108°
2026-05-05 13:02 51.07125 2.78047 36039 ft 452 kts 108°
2026-05-05 13:03 51.06262 2.82856 36191 ft 452 kts 108°
2026-05-05 13:03 51.05395 2.87662 36335 ft 452 kts 108°
2026-05-05 13:03 51.04523 2.92460 36479 ft 452 kts 109°
2026-05-05 13:03 51.03648 2.97253 36616 ft 452 kts 109°
2026-05-05 13:04 51.02779 3.02001 36765 ft 452 kts 109°
2026-05-05 13:04 51.01897 3.06798 36885 ft 452 kts 109°
2026-05-05 13:04 51.00120 3.16425 36931 ft 457 kts 109°
2026-05-05 13:05 50.98311 3.26177 36921 ft 463 kts 109°
2026-05-05 13:05 50.96470 3.36054 36912 ft 467 kts 109°
2026-05-05 13:06 50.94621 3.45918 36909 ft 470 kts 109°
2026-05-05 13:06 50.92743 3.55890 36910 ft 472 kts 109°
2026-05-05 13:07 50.90853 3.65869 36908 ft 473 kts 110°
2026-05-05 13:07 50.88941 3.75800 36910 ft 474 kts 110°
2026-05-05 13:08 50.87005 3.85790 36908 ft 474 kts 110°
2026-05-05 13:08 50.85063 3.95777 36910 ft 474 kts 110°
2026-05-05 13:09 50.83113 4.05747 36912 ft 475 kts 110°
2026-05-05 13:09 50.81161 4.15681 36913 ft 475 kts 110°
2026-05-05 13:10 50.79189 4.25666 36912 ft 475 kts 110°
2026-05-05 13:10 50.77213 4.35621 36913 ft 474 kts 110°
2026-05-05 13:11 50.75228 4.45567 36919 ft 474 kts 111°
2026-05-05 13:11 50.73571 4.53830 36909 ft 474 kts 111°
2026-05-05 13:12 50.71267 4.65370 36907 ft 474 kts 110°
2026-05-05 13:12 50.69671 4.73658 36906 ft 474 kts 110°
2026-05-05 13:13 50.67746 4.83608 36901 ft 473 kts 110°
2026-05-05 13:13 50.65806 4.93523 36891 ft 473 kts 111°
2026-05-05 13:14 50.63786 5.03389 36890 ft 472 kts 111°
2026-05-05 13:14 50.61744 5.13238 36888 ft 473 kts 111°
2026-05-05 13:15 50.59713 5.23033 36890 ft 473 kts 111°
2026-05-05 13:15 50.57663 5.32891 36890 ft 472 kts 111°
2026-05-05 13:16 50.55622 5.42658 36891 ft 472 kts 111°
2026-05-05 13:16 50.53512 5.52704 36889 ft 472 kts 111°
2026-05-05 13:17 50.51532 5.62320 36883 ft 474 kts 108°
2026-05-05 13:17 50.50169 5.72494 36877 ft 476 kts 104°
2026-05-05 13:18 50.48870 5.82641 36870 ft 476 kts 105°
2026-05-05 13:18 50.47541 5.92833 36859 ft 475 kts 105°
2026-05-05 13:19 50.46202 6.03009 36854 ft 475 kts 105°
2026-05-05 13:19 50.44855 6.13184 36850 ft 475 kts 105°
2026-05-05 13:20 50.43508 6.23292 36844 ft 476 kts 105°
2026-05-05 13:20 50.42143 6.33461 36837 ft 476 kts 106°
2026-05-05 13:21 50.41143 6.43763 36834 ft 478 kts 101°
2026-05-05 13:21 50.40370 6.54061 36831 ft 478 kts 101°
2026-05-05 13:22 50.39520 6.65121 36830 ft 478 kts 101°
2026-05-05 13:22 50.38766 6.74776 36832 ft 478 kts 101°
2026-05-05 13:23 50.37952 6.85068 36832 ft 478 kts 101°
2026-05-05 13:23 50.37126 6.95406 36833 ft 478 kts 101°
2026-05-05 13:24 50.36291 7.05739 36835 ft 478 kts 101°
2026-05-05 13:24 50.35446 7.16089 36834 ft 478 kts 101°
2026-05-05 13:25 50.34597 7.26365 36831 ft 478 kts 102°
2026-05-05 13:25 50.33734 7.36698 36835 ft 478 kts 102°
2026-05-05 13:26 50.32861 7.47035 36835 ft 478 kts 102°
2026-05-05 13:26 50.31979 7.57364 36830 ft 478 kts 102°
2026-05-05 13:27 50.31092 7.67643 36828 ft 479 kts 102°
2026-05-05 13:27 50.30193 7.77961 36827 ft 479 kts 102°
2026-05-05 13:28 50.29283 7.88296 36827 ft 479 kts 102°
2026-05-05 13:28 50.28283 7.98601 36830 ft 478 kts 104°
2026-05-05 13:29 50.27144 8.08781 36849 ft 478 kts 104°
2026-05-05 13:29 50.26012 8.19013 36835 ft 478 kts 104°
2026-05-05 13:30 50.24883 8.29261 36858 ft 479 kts 104°
2026-05-05 13:30 50.23738 8.39579 36834 ft 483 kts 104°
2026-05-05 13:31 50.22590 8.49849 36820 ft 482 kts 104°
2026-05-05 13:31 50.21428 8.60154 36838 ft 481 kts 104°
2026-05-05 13:32 50.20256 8.70452 36822 ft 480 kts 104°
2026-05-05 13:32 50.19085 8.80662 36828 ft 480 kts 104°
2026-05-05 13:33 50.17900 8.90909 36821 ft 480 kts 104°
2026-05-05 13:33 50.16704 9.01169 36822 ft 480 kts 104°
2026-05-05 13:34 50.15499 9.11417 36816 ft 480 kts 105°
2026-05-05 13:34 50.14292 9.21609 36816 ft 480 kts 105°
2026-05-05 13:35 50.13069 9.31854 36815 ft 480 kts 105°
2026-05-05 13:35 50.11859 9.41915 36814 ft 480 kts 105°
2026-05-05 13:36 50.10603 9.52278 36815 ft 481 kts 105°
2026-05-05 13:36 50.09351 9.62511 36819 ft 481 kts 105°
2026-05-05 13:37 50.08091 9.72747 36812 ft 481 kts 105°
2026-05-05 13:37 50.06828 9.82924 36811 ft 481 kts 105°
2026-05-05 13:38 50.05549 9.93151 36811 ft 481 kts 105°
2026-05-05 13:38 50.04259 10.03394 36809 ft 482 kts 105°
2026-05-05 13:39 50.02958 10.13643 36809 ft 482 kts 105°
2026-05-05 13:39 50.01658 10.23808 36806 ft 482 kts 105°
2026-05-05 13:40 50.00336 10.34065 36802 ft 482 kts 105°
2026-05-05 13:40 49.99014 10.44248 36803 ft 483 kts 105°
2026-05-05 13:41 49.97676 10.54490 36797 ft 483 kts 105°
2026-05-05 13:41 49.96331 10.64728 36794 ft 483 kts 106°
2026-05-05 13:42 49.94950 10.74944 36790 ft 483 kts 106°
2026-05-05 13:42 49.93559 10.85156 36795 ft 484 kts 106°
2026-05-05 13:43 49.92169 10.95321 36787 ft 484 kts 106°
2026-05-05 13:43 49.90757 11.05567 36786 ft 485 kts 106°
2026-05-05 13:44 49.89339 11.15796 36784 ft 485 kts 106°
2026-05-05 13:44 49.87918 11.25976 36782 ft 486 kts 106°
2026-05-05 13:45 49.86476 11.36235 36770 ft 486 kts 106°
2026-05-05 13:45 49.85021 11.46516 36779 ft 486 kts 106°
2026-05-05 13:46 49.83566 11.56729 36776 ft 487 kts 106°
2026-05-05 13:46 49.82094 11.66981 36775 ft 487 kts 106°
2026-05-05 13:47 49.80611 11.77253 36772 ft 487 kts 106°
2026-05-05 13:47 49.79130 11.87439 36774 ft 487 kts 106°
2026-05-05 13:48 49.77632 11.97665 36773 ft 488 kts 106°
2026-05-05 13:48 49.76123 12.07909 36771 ft 488 kts 106°
2026-05-05 13:49 49.74601 12.18167 36770 ft 488 kts 106°
2026-05-05 13:49 49.73084 12.28326 36767 ft 489 kts 106°
2026-05-05 13:50 49.71543 12.38586 36763 ft 489 kts 106°
2026-05-05 13:50 49.69957 12.48817 36762 ft 488 kts 109°
2026-05-05 13:51 49.68136 12.58940 36763 ft 488 kts 108°
2026-05-05 13:51 49.66359 12.69014 36758 ft 488 kts 108°
2026-05-05 13:52 49.64557 12.79154 36766 ft 489 kts 108°
2026-05-05 13:52 49.62748 12.89227 36775 ft 489 kts 108°
2026-05-05 13:53 49.60916 12.99350 36786 ft 490 kts 109°
2026-05-05 13:53 49.59387 13.07758 36792 ft 490 kts 109°
2026-05-05 13:54 49.57558 13.17775 36801 ft 472 kts 109°
2026-05-05 13:54 49.56682 13.22566 36802 ft 457 kts 109°
2026-05-05 13:54 49.55818 13.27260 36803 ft 454 kts 109°
2026-05-05 13:55 49.54080 13.36637 36796 ft 461 kts 109°
2026-05-05 13:55 49.52309 13.46168 36786 ft 462 kts 109°
2026-05-05 13:56 49.50537 13.55669 36775 ft 462 kts 109°
2026-05-05 13:56 49.48751 13.65188 36764 ft 462 kts 109°
2026-05-05 13:57 49.46967 13.74645 36752 ft 462 kts 109°
2026-05-05 13:57 49.45172 13.84123 36749 ft 461 kts 109°
2026-05-05 13:58 49.43364 13.93613 36747 ft 461 kts 109°
2026-05-05 13:58 49.41563 14.03025 36747 ft 461 kts 109°
2026-05-05 13:59 49.38828 14.17219 36739 ft 461 kts 109°
2026-05-05 14:00 49.36080 14.31384 36743 ft 461 kts 109°
2026-05-05 14:00 49.34237 14.40820 36746 ft 462 kts 109°
2026-05-05 14:01 49.32399 14.50190 36741 ft 462 kts 109°
2026-05-05 14:01 49.30539 14.59623 36748 ft 462 kts 109°
2026-05-05 14:02 49.28673 14.69043 36750 ft 462 kts 109°
2026-05-05 14:02 49.26799 14.78454 36753 ft 462 kts 109°
2026-05-05 14:03 49.24915 14.87873 36752 ft 462 kts 109°
2026-05-05 14:03 49.23036 14.97222 36757 ft 462 kts 109°
2026-05-05 14:04 49.21138 15.06616 36763 ft 462 kts 109°
2026-05-05 14:04 49.19231 15.16013 36760 ft 462 kts 109°
2026-05-05 14:05 49.17328 15.25347 36758 ft 462 kts 109°
2026-05-05 14:05 49.15405 15.34728 36756 ft 462 kts 109°
2026-05-05 14:06 49.13483 15.44067 36760 ft 462 kts 109°
2026-05-05 14:06 49.11543 15.53447 36759 ft 462 kts 109°
2026-05-05 14:07 49.09599 15.62805 36769 ft 462 kts 109°
2026-05-05 14:07 49.07645 15.72167 36784 ft 462 kts 109°
2026-05-05 14:08 49.05685 15.81508 36798 ft 462 kts 110°
2026-05-05 14:08 49.03718 15.90847 36811 ft 462 kts 110°
2026-05-05 14:09 49.01756 16.00117 36809 ft 462 kts 110°
2026-05-05 14:09 48.99772 16.09445 36819 ft 462 kts 110°
2026-05-05 14:10 48.97783 16.18760 36802 ft 462 kts 110°
2026-05-05 14:10 48.95784 16.28074 36804 ft 462 kts 110°
2026-05-05 14:11 48.93778 16.37380 36785 ft 462 kts 110°
2026-05-05 14:11 48.91767 16.46669 36779 ft 462 kts 110°
2026-05-05 14:12 48.89744 16.55967 36786 ft 462 kts 110°
2026-05-05 14:12 48.87714 16.65255 36782 ft 462 kts 110°
2026-05-05 14:13 48.85682 16.74517 36783 ft 462 kts 110°
2026-05-05 14:13 48.83656 16.83710 36773 ft 462 kts 110°
2026-05-05 14:14 48.81603 16.92988 36781 ft 462 kts 110°
2026-05-05 14:14 48.79553 17.02230 36776 ft 462 kts 110°
2026-05-05 14:15 48.77115 17.11212 36789 ft 459 kts 119°
2026-05-05 14:15 48.74085 17.19678 36789 ft 459 kts 121°
2026-05-05 14:16 48.71043 17.28219 36806 ft 459 kts 120°
2026-05-05 14:16 48.68000 17.36745 36823 ft 461 kts 120°
2026-05-05 14:17 48.64952 17.45240 36831 ft 461 kts 121°
2026-05-05 14:17 48.61624 17.53493 36849 ft 458 kts 129°
2026-05-05 14:18 48.57416 17.60685 36856 ft 455 kts 138°
2026-05-05 14:18 48.52914 17.67404 36856 ft 456 kts 138°
2026-05-05 14:19 48.48401 17.74167 36856 ft 456 kts 137°
2026-05-05 14:19 48.43920 17.80866 36855 ft 456 kts 138°
2026-05-05 14:20 48.39402 17.87600 36856 ft 456 kts 138°
2026-05-05 14:20 48.34878 17.94322 36854 ft 456 kts 138°
2026-05-05 14:21 48.30356 18.01021 36854 ft 456 kts 138°
2026-05-05 14:21 48.25853 18.07679 36858 ft 456 kts 138°
2026-05-05 14:22 48.21320 18.14362 36866 ft 456 kts 138°
2026-05-05 14:22 48.16787 18.21027 36870 ft 456 kts 138°
2026-05-05 14:23 48.12278 18.27642 36873 ft 455 kts 138°
2026-05-05 14:23 48.07747 18.34273 36877 ft 455 kts 138°
2026-05-05 14:24 48.03203 18.40902 36883 ft 456 kts 138°
2026-05-05 14:24 47.98661 18.47514 36887 ft 456 kts 137°
2026-05-05 14:25 47.94129 18.54093 36891 ft 456 kts 138°
2026-05-05 14:25 47.89577 18.60683 36893 ft 455 kts 138°
2026-05-05 14:26 47.85023 18.67261 36895 ft 455 kts 138°
2026-05-05 14:26 47.80468 18.73824 36900 ft 455 kts 137°
2026-05-05 14:27 47.75998 18.80409 36906 ft 454 kts 137°
2026-05-05 14:27 47.71528 18.87070 36907 ft 455 kts 137°
2026-05-05 14:28 47.67044 18.93724 36918 ft 455 kts 137°
2026-05-05 14:28 47.62555 19.00361 36921 ft 455 kts 137°
2026-05-05 14:29 47.58070 19.06974 36932 ft 455 kts 137°
2026-05-05 14:29 47.53596 19.13546 36939 ft 454 kts 137°
2026-05-05 14:30 47.49101 19.20129 36944 ft 454 kts 137°
2026-05-05 14:30 47.44608 19.26693 36945 ft 454 kts 137°
2026-05-05 14:31 47.40135 19.33210 36943 ft 453 kts 137°
2026-05-05 14:31 47.35643 19.39738 36941 ft 453 kts 137°
2026-05-05 14:32 47.31877 19.45200 36937 ft 453 kts 137°
2026-05-05 14:32 47.27396 19.51680 36933 ft 453 kts 137°
2026-05-05 14:33 47.22896 19.58173 36927 ft 453 kts 137°
2026-05-05 14:33 47.18363 19.64699 36927 ft 453 kts 137°
2026-05-05 14:34 47.13847 19.71182 36931 ft 453 kts 137°
2026-05-05 14:34 47.09351 19.77620 36936 ft 454 kts 137°
2026-05-05 14:35 47.04823 19.84090 36941 ft 454 kts 137°
2026-05-05 14:35 47.00295 19.90541 36943 ft 454 kts 137°
2026-05-05 14:36 46.95521 19.97326 36943 ft 454 kts 137°
2026-05-05 14:36 46.91221 20.03423 36939 ft 454 kts 137°
2026-05-05 14:37 46.86673 20.09856 36934 ft 454 kts 137°
2026-05-05 14:37 46.82131 20.16264 36931 ft 454 kts 137°
2026-05-05 14:38 46.77577 20.22673 36928 ft 455 kts 137°
2026-05-05 14:38 46.73021 20.29070 36922 ft 455 kts 137°
2026-05-05 14:39 46.68491 20.35414 36929 ft 455 kts 137°
2026-05-05 14:39 46.63922 20.41796 36925 ft 455 kts 137°
2026-05-05 14:40 46.59353 20.48163 36928 ft 455 kts 137°
2026-05-05 14:40 46.54780 20.54520 36927 ft 455 kts 137°
2026-05-05 14:41 46.50208 20.60861 36933 ft 455 kts 137°
2026-05-05 14:41 46.45623 20.67203 36931 ft 455 kts 137°
2026-05-05 14:42 46.41032 20.73538 36936 ft 456 kts 137°
2026-05-05 14:42 46.36434 20.79868 36934 ft 456 kts 137°
2026-05-05 14:43 46.31826 20.86196 36944 ft 457 kts 137°
2026-05-05 14:43 46.27212 20.92517 36954 ft 457 kts 137°
2026-05-05 14:44 46.22591 20.98831 36964 ft 457 kts 137°
2026-05-05 14:44 46.17960 21.05144 36968 ft 458 kts 137°
2026-05-05 14:45 46.13324 21.11449 36971 ft 458 kts 137°
2026-05-05 14:45 46.08684 21.17745 36974 ft 458 kts 137°
2026-05-05 14:46 46.04069 21.23990 36973 ft 458 kts 137°
2026-05-05 14:46 45.99410 21.30279 36970 ft 459 kts 137°
2026-05-05 14:47 45.94756 21.36548 36974 ft 459 kts 137°
2026-05-05 14:47 45.90090 21.42817 36975 ft 459 kts 137°
2026-05-05 14:48 45.85410 21.49089 36970 ft 459 kts 137°
2026-05-05 14:48 45.80737 21.55337 36969 ft 460 kts 137°
2026-05-05 14:49 45.76052 21.61587 36967 ft 460 kts 137°
2026-05-05 14:49 45.71362 21.67827 36964 ft 460 kts 137°
2026-05-05 14:50 45.66700 21.74016 36957 ft 460 kts 137°
2026-05-05 14:50 45.62006 21.80232 36957 ft 460 kts 137°
2026-05-05 14:51 45.57304 21.86445 36961 ft 461 kts 137°
2026-05-05 14:51 45.52591 21.92656 36963 ft 461 kts 137°
2026-05-05 14:52 45.47871 21.98861 36971 ft 462 kts 137°
2026-05-05 14:52 45.43144 22.05063 36971 ft 462 kts 137°
2026-05-05 14:53 45.38405 22.11252 36970 ft 462 kts 136°
2026-05-05 14:53 45.33837 22.17693 36980 ft 463 kts 134°
2026-05-05 14:54 45.29253 22.24155 36986 ft 463 kts 135°
2026-05-05 14:54 45.24626 22.30542 36990 ft 464 kts 135°
2026-05-05 14:55 45.19982 22.36903 36987 ft 465 kts 135°
2026-05-05 14:55 45.15327 22.43258 36993 ft 465 kts 135°
2026-05-05 14:56 45.10656 22.49617 37001 ft 465 kts 135°
2026-05-05 14:56 45.06019 22.55915 36998 ft 466 kts 135°
2026-05-05 14:57 45.01341 22.62253 36994 ft 466 kts 135°
2026-05-05 14:57 44.96657 22.68585 36988 ft 466 kts 135°
2026-05-05 14:58 44.91964 22.74913 36981 ft 466 kts 135°
2026-05-05 14:58 44.87272 22.81224 36977 ft 466 kts 135°
2026-05-05 14:59 44.82573 22.87532 36977 ft 466 kts 135°
2026-05-05 14:59 44.77869 22.93831 36970 ft 467 kts 135°
2026-05-05 15:00 44.73951 22.99064 36972 ft 467 kts 135°
2026-05-05 15:00 44.68441 23.06408 36975 ft 467 kts 135°
2026-05-05 15:01 44.63713 23.12695 36975 ft 467 kts 135°
2026-05-05 15:01 44.59011 23.18930 36976 ft 468 kts 135°
2026-05-05 15:02 44.54279 23.25191 36977 ft 468 kts 135°
2026-05-05 15:02 44.49547 23.31439 36976 ft 468 kts 135°
2026-05-05 15:03 44.44803 23.37688 36982 ft 468 kts 136°
2026-05-05 15:03 44.40056 23.43925 36992 ft 468 kts 136°
2026-05-05 15:04 44.35305 23.50153 36991 ft 468 kts 136°
2026-05-05 15:04 44.30537 23.56389 36994 ft 468 kts 136°
2026-05-05 15:05 44.23393 23.65705 36997 ft 468 kts 136°
2026-05-05 15:06 44.18633 23.71893 36998 ft 468 kts 136°
2026-05-05 15:06 44.13855 23.78092 36996 ft 468 kts 136°
2026-05-05 15:07 44.09080 23.84272 36996 ft 468 kts 136°
2026-05-05 15:07 44.04304 23.90439 36990 ft 469 kts 136°
2026-05-05 15:08 43.99547 23.96568 36986 ft 469 kts 136°
2026-05-05 15:08 43.94766 24.02713 36985 ft 469 kts 136°
2026-05-05 15:09 43.89975 24.08857 36984 ft 469 kts 136°
2026-05-05 15:09 43.85183 24.14987 36989 ft 469 kts 136°
2026-05-05 15:10 43.80384 24.21114 36991 ft 469 kts 136°
2026-05-05 15:10 43.75572 24.27243 36990 ft 470 kts 136°
2026-05-05 15:11 43.70762 24.33354 36994 ft 470 kts 136°
2026-05-05 15:11 43.65942 24.39465 36994 ft 470 kts 136°
2026-05-05 15:12 43.61109 24.45578 36998 ft 471 kts 136°
2026-05-05 15:12 43.56268 24.51688 37003 ft 471 kts 136°
2026-05-05 15:13 43.51421 24.57790 37005 ft 472 kts 136°
2026-05-05 15:13 43.47355 24.62901 37011 ft 472 kts 136°
2026-05-05 15:14 43.42494 24.68996 37013 ft 473 kts 136°
2026-05-05 15:14 43.37626 24.75084 37013 ft 473 kts 136°
2026-05-05 15:15 43.32777 24.81137 37014 ft 473 kts 136°
2026-05-05 15:15 43.27898 24.87214 37017 ft 473 kts 136°
2026-05-05 15:16 43.23019 24.93277 37020 ft 473 kts 136°
2026-05-05 15:16 43.18134 24.99333 37024 ft 473 kts 136°
2026-05-05 15:17 43.13245 25.05380 37020 ft 473 kts 136°
2026-05-05 15:17 43.08349 25.11424 37024 ft 473 kts 136°
2026-05-05 15:18 43.03459 25.17445 37029 ft 473 kts 136°
2026-05-05 15:18 42.98568 25.23455 37025 ft 473 kts 136°
2026-05-05 15:19 42.93672 25.29458 37023 ft 473 kts 136°
2026-05-05 15:19 42.88771 25.35453 37023 ft 473 kts 136°
2026-05-05 15:20 42.83871 25.41433 37022 ft 473 kts 137°
2026-05-05 15:20 42.78977 25.47394 37021 ft 472 kts 137°
2026-05-05 15:21 42.74072 25.53354 37012 ft 472 kts 137°
2026-05-05 15:21 42.69162 25.59307 37021 ft 472 kts 137°
2026-05-05 15:22 42.64253 25.65246 37016 ft 473 kts 137°
2026-05-05 15:22 42.59337 25.71179 37014 ft 473 kts 137°
2026-05-05 15:23 42.54417 25.77106 37008 ft 473 kts 137°
2026-05-05 15:23 42.49490 25.83027 37009 ft 473 kts 137°
2026-05-05 15:24 42.44557 25.88942 37010 ft 474 kts 137°
2026-05-05 15:24 42.39617 25.94853 37014 ft 474 kts 137°
2026-05-05 15:25 42.34679 26.00750 37018 ft 474 kts 137°
2026-05-05 15:25 42.29728 26.06648 37022 ft 474 kts 137°
2026-05-05 15:26 42.24783 26.12525 37024 ft 474 kts 137°
2026-05-05 15:26 42.19856 26.18370 37030 ft 474 kts 137°
2026-05-05 15:27 42.14872 26.24269 37020 ft 474 kts 137°
2026-05-05 15:27 42.09948 26.30085 37025 ft 474 kts 137°
2026-05-05 15:28 42.04990 26.35928 37022 ft 474 kts 137°
2026-05-05 15:28 42.00026 26.41766 37027 ft 474 kts 137°
2026-05-05 15:29 41.95030 26.47635 37020 ft 474 kts 137°
2026-05-05 15:29 41.90060 26.53461 37017 ft 474 kts 137°
2026-05-05 15:30 41.84915 26.58996 37012 ft 475 kts 144°
2026-05-05 15:30 41.79500 26.64071 37010 ft 475 kts 144°
2026-05-05 15:31 41.74106 26.69178 37011 ft 475 kts 144°
2026-05-05 15:31 41.68696 26.74285 37016 ft 476 kts 144°
2026-05-05 15:32 41.63279 26.79381 37021 ft 476 kts 144°
2026-05-05 15:32 41.57891 26.84439 37023 ft 477 kts 144°
2026-05-05 15:33 41.52452 26.89534 37025 ft 477 kts 144°
2026-05-05 15:33 41.47013 26.94618 37032 ft 478 kts 144°
2026-05-05 15:34 41.41560 26.99705 37034 ft 478 kts 144°
2026-05-05 15:34 41.36105 27.04784 37036 ft 479 kts 144°
2026-05-05 15:35 41.30638 27.09864 37042 ft 479 kts 144°
2026-05-05 15:35 41.25167 27.14937 37047 ft 479 kts 144°
2026-05-05 15:36 41.19725 27.19971 37051 ft 480 kts 144°
2026-05-05 15:36 41.14244 27.25030 37059 ft 480 kts 144°
2026-05-05 15:37 41.08750 27.30091 37064 ft 480 kts 144°
2026-05-05 15:37 41.03256 27.35140 37067 ft 481 kts 144°
2026-05-05 15:38 40.97752 27.40179 37074 ft 481 kts 146°
2026-05-05 15:38 40.91869 27.44364 37072 ft 481 kts 158°
2026-05-05 15:39 40.85645 27.47622 37072 ft 480 kts 159°
2026-05-05 15:39 40.79433 27.50885 37067 ft 480 kts 158°
2026-05-05 15:40 40.73230 27.54147 37067 ft 480 kts 158°
2026-05-05 15:40 40.67028 27.57403 37071 ft 480 kts 159°
2026-05-05 15:41 40.60817 27.60656 37081 ft 480 kts 159°
2026-05-05 15:41 40.54601 27.63895 37078 ft 480 kts 160°
2026-05-05 15:42 40.48212 27.66221 37076 ft 477 kts 169°
2026-05-05 15:42 40.41724 27.68064 37076 ft 477 kts 169°
2026-05-05 15:43 40.35240 27.69924 37076 ft 477 kts 169°
2026-05-05 15:43 40.28751 27.71786 37080 ft 477 kts 169°
2026-05-05 15:44 40.22271 27.73643 37071 ft 477 kts 169°
2026-05-05 15:44 40.15791 27.75495 37074 ft 477 kts 169°
2026-05-05 15:45 40.09306 27.77346 37070 ft 477 kts 169°
2026-05-05 15:45 40.02812 27.79195 37071 ft 478 kts 169°
2026-05-05 15:46 39.96316 27.81042 37065 ft 478 kts 169°
2026-05-05 15:46 39.89806 27.82889 37076 ft 479 kts 169°
2026-05-05 15:47 39.83290 27.84733 37076 ft 479 kts 169°
2026-05-05 15:47 39.76762 27.86572 37080 ft 480 kts 169°
2026-05-05 15:48 39.70237 27.88406 37085 ft 480 kts 169°
2026-05-05 15:48 39.63697 27.90242 37084 ft 480 kts 169°
2026-05-05 15:49 39.57209 27.92059 37091 ft 480 kts 169°
2026-05-05 15:49 39.50669 27.93888 37088 ft 481 kts 169°
2026-05-05 15:50 39.44129 27.95713 37094 ft 481 kts 169°
2026-05-05 15:50 39.37583 27.97536 37078 ft 480 kts 169°
2026-05-05 15:51 39.31068 27.99348 37071 ft 478 kts 169°
2026-05-05 15:51 39.25651 28.00851 37067 ft 478 kts 169°
2026-05-05 15:52 39.19143 28.02653 37066 ft 478 kts 169°
2026-05-05 15:52 39.12640 28.04552 37064 ft 480 kts 164°
2026-05-05 15:53 39.06590 28.08178 37058 ft 483 kts 147°
2026-05-05 15:53 39.01287 28.13869 37060 ft 483 kts 137°
2026-05-05 15:54 38.96444 28.19491 37057 ft 483 kts 138°
2026-05-05 15:54 38.91433 28.25271 37063 ft 484 kts 138°
2026-05-05 15:55 38.86417 28.31042 37061 ft 485 kts 138°
2026-05-05 15:55 38.81331 28.36709 37067 ft 484 kts 140°
2026-05-05 15:56 38.76168 28.42238 36994 ft 484 kts 140°
2026-05-05 15:56 38.71128 28.47953 37139 ft 485 kts 135°
2026-05-05 15:57 38.66475 28.54179 37083 ft 483 kts 136°
2026-05-05 15:57 38.61593 28.60031 37122 ft 480 kts 138°
2026-05-05 15:58 38.56404 28.65405 37040 ft 480 kts 148°
2026-05-05 15:58 38.50814 28.70056 37033 ft 479 kts 147°
2026-05-05 15:59 38.45302 28.74860 37029 ft 479 kts 146°
2026-05-05 15:59 38.39805 28.79760 37051 ft 486 kts 146°
2026-05-05 16:00 38.34205 28.84760 37057 ft 496 kts 146°
2026-05-05 16:00 38.28510 28.89829 37059 ft 503 kts 146°
2026-05-05 16:01 38.22746 28.94949 37063 ft 506 kts 146°
2026-05-05 16:01 38.16981 29.00060 37059 ft 506 kts 146°
2026-05-05 16:02 38.11209 29.05167 37058 ft 505 kts 146°
2026-05-05 16:02 38.05424 29.10275 37058 ft 506 kts 146°
2026-05-05 16:03 37.99683 29.15334 37060 ft 506 kts 146°
2026-05-05 16:03 37.93898 29.20423 37068 ft 506 kts 146°
2026-05-05 16:04 37.88103 29.25510 37064 ft 506 kts 146°
2026-05-05 16:04 37.82314 29.30584 37061 ft 506 kts 146°
2026-05-05 16:05 37.76515 29.35659 37058 ft 506 kts 146°
2026-05-05 16:05 37.70718 29.40722 37060 ft 506 kts 146°
2026-05-05 16:06 37.64925 29.45772 37056 ft 506 kts 146°
2026-05-05 16:06 37.59135 29.50809 37053 ft 506 kts 146°
2026-05-05 16:07 37.53343 29.55839 37050 ft 506 kts 146°
2026-05-05 16:07 37.47541 29.60868 37047 ft 506 kts 147°
2026-05-05 16:08 37.41737 29.65888 37042 ft 506 kts 147°
2026-05-05 16:08 37.35934 29.70899 37027 ft 507 kts 147°
2026-05-05 16:09 37.30113 29.75918 37032 ft 507 kts 147°
2026-05-05 16:09 37.24303 29.80923 37020 ft 507 kts 147°
2026-05-05 16:10 37.18486 29.85924 37024 ft 507 kts 147°
2026-05-05 16:10 37.12655 29.90927 37020 ft 508 kts 147°
2026-05-05 16:11 37.06833 29.95916 37015 ft 508 kts 147°
2026-05-05 16:12 36.95194 30.05875 37001 ft 508 kts 147°
2026-05-05 16:13 36.80572 30.18324 36992 ft 509 kts 147°
2026-05-05 16:13 36.74716 30.23285 36997 ft 509 kts 147°
2026-05-05 16:14 36.62989 30.33194 36990 ft 508 kts 147°
2026-05-05 16:15 36.51284 30.43047 36985 ft 508 kts 147°
2026-05-05 16:16 36.39615 30.52835 36982 ft 508 kts 148°
2026-05-05 16:17 36.30816 30.60191 36984 ft 508 kts 148°
2026-05-05 16:18 36.22019 30.67526 36987 ft 508 kts 148°
2026-05-05 16:19 36.13220 30.74841 36985 ft 507 kts 148°
2026-05-05 16:19 36.04095 30.81320 36989 ft 501 kts 165°
2026-05-05 16:20 35.97329 30.82880 36989 ft 492 kts 181°
2026-05-05 16:20 35.90498 30.83265 36992 ft 492 kts 181°
2026-05-05 16:22 35.73405 30.84296 36991 ft 491 kts 181°
2026-05-05 16:23 35.59794 30.85104 36991 ft 491 kts 182°
2026-05-05 16:23 35.49566 30.85426 37004 ft 490 kts 183°
2026-05-05 16:24 35.42740 30.85640 37001 ft 490 kts 183°
2026-05-05 16:25 35.32510 30.85981 37000 ft 490 kts 183°
2026-05-05 16:25 35.22293 30.86323 37008 ft 490 kts 183°
2026-05-05 16:26 35.08684 30.86777 37013 ft 489 kts 183°
2026-05-05 16:27 35.01880 30.87004 37009 ft 488 kts 183°
2026-05-05 16:27 34.95129 30.87228 37013 ft 488 kts 184°
2026-05-05 16:28 34.88337 30.87454 37011 ft 488 kts 184°
2026-05-05 16:28 34.81542 30.87678 37020 ft 488 kts 184°
2026-05-05 16:29 34.74759 30.87903 37015 ft 487 kts 184°
2026-05-05 16:29 34.67981 30.88127 37021 ft 487 kts 184°
2026-05-05 16:30 34.61210 30.88350 37017 ft 487 kts 184°
2026-05-05 16:30 34.54443 30.88665 37022 ft 487 kts 183°
2026-05-05 16:31 34.47671 30.89019 37022 ft 487 kts 184°
2026-05-05 16:31 34.40925 30.89359 37027 ft 484 kts 184°
2026-05-05 16:32 34.34178 30.89689 37023 ft 485 kts 184°
2026-05-05 16:32 34.27477 30.90016 37029 ft 484 kts 184°
2026-05-05 16:33 34.20746 30.90357 37025 ft 484 kts 184°
2026-05-05 16:33 34.14011 30.90738 37033 ft 484 kts 184°
2026-05-05 16:34 34.08370 30.91056 37027 ft 484 kts 184°
2026-05-05 16:34 34.01642 30.91431 37027 ft 483 kts 184°
2026-05-05 16:35 33.94915 30.91803 37039 ft 483 kts 184°
2026-05-05 16:35 33.88244 30.92080 37035 ft 482 kts 185°
2026-05-05 16:36 33.81531 30.92314 37035 ft 482 kts 185°
2026-05-05 16:36 33.74822 30.92562 37034 ft 482 kts 185°
2026-05-05 16:37 33.68128 30.92816 37034 ft 481 kts 185°
2026-05-05 16:37 33.61438 30.93070 37038 ft 481 kts 186°
2026-05-05 16:38 33.54750 30.93323 37033 ft 480 kts 186°
2026-05-05 16:38 33.48077 30.93575 37039 ft 480 kts 186°
2026-05-05 16:39 33.41399 30.93827 37040 ft 479 kts 186°
2026-05-05 16:39 33.34786 30.94076 37045 ft 478 kts 186°
2026-05-05 16:40 33.28133 30.94326 37044 ft 478 kts 186°
2026-05-05 16:40 33.21495 30.94577 37045 ft 470 kts 186°
2026-05-05 16:41 33.18277 30.94707 37046 ft 455 kts 186°
2026-05-05 16:41 33.15147 30.94830 37048 ft 447 kts 186°
2026-05-05 16:41 33.08877 30.95117 37053 ft 458 kts 183°
2026-05-05 16:42 33.02534 30.95835 37053 ft 457 kts 183°
2026-05-05 16:42 32.96203 30.96551 37056 ft 457 kts 183°
2026-05-05 16:43 32.89873 30.97260 37057 ft 456 kts 183°
2026-05-05 16:43 32.83557 30.97966 37058 ft 456 kts 183°
2026-05-05 16:44 32.77239 30.98671 37062 ft 456 kts 183°
2026-05-05 16:44 32.70925 30.99374 37076 ft 455 kts 183°
2026-05-05 16:45 32.64617 31.00076 37073 ft 455 kts 183°
2026-05-05 16:45 32.58319 31.00775 37074 ft 455 kts 183°
2026-05-05 16:46 32.52024 31.01473 37073 ft 454 kts 183°
2026-05-05 16:46 32.45738 31.02169 37077 ft 453 kts 184°
2026-05-05 16:47 32.39459 31.02864 37079 ft 453 kts 184°
2026-05-05 16:47 32.33187 31.03556 37078 ft 452 kts 184°
2026-05-05 16:48 32.26931 31.04246 37075 ft 451 kts 184°
2026-05-05 16:48 32.20723 31.04929 37079 ft 450 kts 184°
2026-05-05 16:49 32.14481 31.05616 37073 ft 450 kts 184°
2026-05-05 16:49 32.08234 31.06292 37079 ft 455 kts 182°
2026-05-05 16:50 32.01913 31.06984 37076 ft 455 kts 183°
2026-05-05 16:50 31.95607 31.07667 36844 ft 455 kts 183°
2026-05-05 16:51 31.92456 31.08006 36578 ft 454 kts 183°
2026-05-05 16:51 31.89305 31.08345 36334 ft 455 kts 183°
2026-05-05 16:51 31.86150 31.08683 36076 ft 456 kts 183°
2026-05-05 16:51 31.82992 31.09021 35826 ft 456 kts 183°
2026-05-05 16:52 31.79823 31.09361 35576 ft 457 kts 183°
2026-05-05 16:52 31.76659 31.09701 35245 ft 458 kts 183°
2026-05-05 16:52 31.73474 31.10040 34586 ft 461 kts 183°
2026-05-05 16:52 31.70255 31.10382 33668 ft 467 kts 183°
2026-05-05 16:53 31.67017 31.10729 32957 ft 466 kts 183°
2026-05-05 16:53 31.63790 31.11077 32210 ft 465 kts 183°
2026-05-05 16:53 31.60562 31.11423 31466 ft 468 kts 182°
2026-05-05 16:53 31.57302 31.11769 30950 ft 471 kts 182°
2026-05-05 16:54 31.54049 31.12117 30400 ft 469 kts 182°
2026-05-05 16:54 31.50806 31.12622 29791 ft 469 kts 178°
2026-05-05 16:54 31.47609 31.13233 29244 ft 463 kts 178°
2026-05-05 16:54 31.44456 31.13832 28693 ft 456 kts 178°
2026-05-05 16:55 31.41338 31.14421 28160 ft 450 kts 178°
2026-05-05 16:55 31.38256 31.14999 27625 ft 444 kts 178°
2026-05-05 16:55 31.35264 31.15560 27106 ft 439 kts 178°
2026-05-05 16:55 31.32261 31.16121 26583 ft 434 kts 178°
2026-05-05 16:56 31.29287 31.16677 26062 ft 430 kts 178°
2026-05-05 16:56 31.26362 31.17223 25555 ft 426 kts 178°
2026-05-05 16:56 31.23435 31.17770 25042 ft 422 kts 178°
2026-05-05 16:56 31.20547 31.18308 24522 ft 418 kts 178°
2026-05-05 16:57 31.17682 31.18842 24021 ft 415 kts 178°
2026-05-05 16:57 31.14827 31.19373 23464 ft 413 kts 178°
2026-05-05 16:57 31.12008 31.19898 22959 ft 408 kts 178°
2026-05-05 16:57 31.09199 31.20418 22077 ft 412 kts 178°
2026-05-05 16:58 31.06344 31.20942 21083 ft 420 kts 178°
2026-05-05 16:58 31.03427 31.21478 20062 ft 428 kts 177°
2026-05-05 16:58 31.00481 31.22024 19349 ft 428 kts 176°
2026-05-05 16:58 30.97560 31.22569 18759 ft 423 kts 176°
2026-05-05 16:59 30.94660 31.23111 18135 ft 419 kts 176°
2026-05-05 16:59 30.91794 31.23644 17487 ft 415 kts 176°
2026-05-05 16:59 30.88959 31.24169 16864 ft 410 kts 176°
2026-05-05 16:59 30.86161 31.24687 16231 ft 406 kts 175°
2026-05-05 17:00 30.83391 31.25198 15622 ft 401 kts 175°
2026-05-05 17:00 30.80638 31.25707 15039 ft 397 kts 175°
2026-05-05 17:00 30.77924 31.26208 14454 ft 393 kts 175°
2026-05-05 17:00 30.75237 31.26703 13877 ft 390 kts 175°
2026-05-05 17:01 30.72566 31.27196 13252 ft 386 kts 175°
2026-05-05 17:01 30.69922 31.27684 12618 ft 383 kts 174°
2026-05-05 17:01 30.67350 31.28158 12014 ft 380 kts 174°
2026-05-05 17:01 30.64716 31.28644 11353 ft 372 kts 174°
2026-05-05 17:02 30.62216 31.29107 10939 ft 355 kts 174°
2026-05-05 17:02 30.59825 31.29551 10545 ft 340 kts 174°
2026-05-05 17:02 30.57554 31.29972 10343 ft 321 kts 174°
2026-05-05 17:02 30.55410 31.30370 10084 ft 306 kts 174°
2026-05-05 17:03 30.53329 31.30752 9519 ft 301 kts 174°
2026-05-05 17:03 30.51245 31.31130 8622 ft 308 kts 174°
2026-05-05 17:03 30.49096 31.31518 7633 ft 317 kts 174°
2026-05-05 17:03 30.46917 31.31916 6924 ft 315 kts 173°
2026-05-05 17:04 30.44785 31.32307 6427 ft 305 kts 173°
2026-05-05 17:04 30.43810 31.32486 6194 ft 301 kts 173°
2026-05-05 17:04 30.41764 31.32865 5679 ft 293 kts 173°
2026-05-05 17:04 30.39780 31.33233 5245 ft 284 kts 173°
2026-05-05 17:05 30.37854 31.33591 4867 ft 275 kts 173°
2026-05-05 17:05 30.35988 31.33936 4478 ft 271 kts 173°
2026-05-05 17:05 30.34093 31.34222 4101 ft 278 kts 176°
2026-05-05 17:05 30.32160 31.34491 3584 ft 282 kts 174°
2026-05-05 17:06 30.30217 31.34767 3167 ft 280 kts 175°
2026-05-05 17:06 30.28283 31.34842 2830 ft 275 kts 191°
2026-05-05 17:06 30.26563 31.34065 2588 ft 260 kts 220°
2026-05-05 17:06 30.25153 31.32703 2519 ft 268 kts 224°
2026-05-05 17:07 30.23760 31.31294 2527 ft 264 kts 225°
2026-05-05 17:07 30.22386 31.29909 2525 ft 264 kts 225°
2026-05-05 17:07 30.20989 31.28500 2533 ft 266 kts 225°
2026-05-05 17:07 30.19593 31.27111 2533 ft 266 kts 225°
2026-05-05 17:08 30.18190 31.25710 2520 ft 265 kts 225°
2026-05-05 17:08 30.16812 31.24327 2522 ft 268 kts 225°
2026-05-05 17:08 30.15426 31.22921 2524 ft 259 kts 225°
2026-05-05 17:08 30.14093 31.21588 2519 ft 241 kts 225°
2026-05-05 17:09 30.12876 31.20385 2523 ft 232 kts 225°
2026-05-05 17:09 30.12823 31.20333 2520 ft 233 kts 225°
2026-05-05 17:09 30.11577 31.19091 2521 ft 234 kts 225°
2026-05-05 17:10 30.10340 31.17869 2527 ft 233 kts 225°
2026-05-05 17:10 30.09106 31.16647 2517 ft 234 kts 225°
2026-05-05 17:10 30.07901 31.15459 2518 ft 221 kts 225°
2026-05-05 17:10 30.06770 31.14354 2513 ft 205 kts 224°
2026-05-05 17:11 30.05725 31.13329 2539 ft 190 kts 225°
2026-05-05 17:11 30.04660 31.12364 2515 ft 199 kts 213°
2026-05-05 17:11 30.03310 31.12072 2523 ft 202 kts 173°
2026-05-05 17:11 30.02066 31.12772 2519 ft 202 kts 133°
2026-05-05 17:12 30.01435 31.14177 2521 ft 199 kts 97°
2026-05-05 17:12 30.01204 31.15751 2511 ft 197 kts 94°
2026-05-05 17:12 30.00982 31.17313 2524 ft 197 kts 95°
2026-05-05 17:12 30.00771 31.18879 2514 ft 196 kts 95°
2026-05-05 17:13 30.00662 31.20441 2522 ft 194 kts 86°
2026-05-05 17:13 30.00642 31.21987 2525 ft 192 kts 85°
2026-05-05 17:13 30.00631 31.23019 2523 ft 195 kts 86°
2026-05-05 17:13 30.00618 31.25116 2528 ft 196 kts 86°
2026-05-05 17:14 30.00666 31.26154 2522 ft 192 kts 75°
2026-05-05 17:14 30.01064 31.27516 2511 ft 168 kts 57°
2026-05-05 17:14 30.01674 31.28631 2527 ft 166 kts 47°
2026-05-05 17:14 30.02388 31.29668 2521 ft 162 kts 44°
2026-05-05 17:15 30.03115 31.30653 2491 ft 162 kts 43°
2026-05-05 17:15 30.03843 31.31622 2229 ft 157 kts 43°
2026-05-05 17:15 30.04558 31.32545 1955 ft 151 kts 43°
2026-05-05 17:15 30.05216 31.33429 1775 ft 141 kts 44°
2026-05-05 17:16 30.05790 31.34295 1632 ft 136 kts 45°
2026-05-05 17:16 30.06415 31.35127 1625 ft 137 kts 40°
2026-05-05 17:16 30.07086 31.35952 1479 ft 141 kts 43°
2026-05-05 17:16 30.07690 31.36816 1244 ft 138 kts 43°
2026-05-05 17:17 30.08329 31.37636 1072 ft 136 kts 43°
2026-05-05 17:17 30.08946 31.38466 766 ft 135 kts 45°
2026-05-05 17:17 30.09561 31.39292 585 ft 140 kts 42°
2026-05-05 17:17 30.10201 31.40141 385 ft 135 kts 43°
2026-05-05 17:18 30.10735 31.40841 374 ft 93 kts 49°
2026-05-05 17:18 30.11030 31.41237 374 ft 47 kts 50°
2026-05-05 17:18 30.11254 31.41518 374 ft 45 kts 46°
2026-05-05 17:18 30.11425 31.41606 374 ft 15 kts 17°
2026-05-05 17:19 30.11531 31.41622 374 ft 14 kts 342°
2026-05-05 17:19 30.11553 31.41540 374 ft 12 kts 248°
2026-05-05 17:19 30.11495 31.41456 374 ft 15 kts 228°
2026-05-05 17:19 30.11420 31.41358 374 ft 18 kts 229°
2026-05-05 17:20 30.11335 31.41242 374 ft 20 kts 231°
2026-05-05 17:20 30.11218 31.41087 374 ft 36 kts 230°
2026-05-05 17:20 30.11061 31.40867 374 ft 28 kts 259°
2026-05-05 17:20 30.11077 31.40733 374 ft 9 kts 222°
2026-05-05 17:21 30.10995 31.40631 374 ft 21 kts 229°
2026-05-05 17:21 30.10918 31.40480 374 ft 22 kts 279°
2026-05-05 17:21 30.10964 31.40309 374 ft 23 kts 282°
2026-05-05 17:22 30.10789 31.40126 374 ft 4 kts 175°
2026-05-05 17:22 30.10766 31.40144 374 ft 9 kts 139°
2026-05-05 17:22 30.10749 31.40164 374 ft 0 kts 144°